Lastest Insider Transactions Of TEXAS PACIFIC LAND TRUST ( TPL )
SymbolCompany NameInsider NameTitleDateTransationSharePriceAmountFile Date
TPLTEXAS PACIFIC LAND TRUSTHORIZON KINETICS ASSET MANAGEMENT LLC 10% Owner2020-07-01Buy236578.40136,5022020-07-02 16:20:19
TPLTEXAS PACIFIC LAND TRUSTHORIZON KINETICS ASSET MANAGEMENT LLC 10% Owner2020-06-30Buy236594.69140,3472020-07-01 12:03:53
TPLTEXAS PACIFIC LAND TRUSTHORIZON KINETICS ASSET MANAGEMENT LLC 10% Owner2020-06-29Buy236570.01134,5222020-06-30 12:19:18
TPLTEXAS PACIFIC LAND TRUSTHORIZON KINETICS ASSET MANAGEMENT LLC 10% Owner2020-06-26Buy236572.15135,0272020-06-29 10:42:39
TPLTEXAS PACIFIC LAND TRUSTHORIZON KINETICS ASSET MANAGEMENT LLC 10% Owner2020-06-25Buy232584.27135,5512020-06-26 12:29:20
TPLTEXAS PACIFIC LAND TRUSTHORIZON KINETICS ASSET MANAGEMENT LLC 10% Owner2020-06-24Buy236572.00134,9922020-06-25 11:39:09
TPLTEXAS PACIFIC LAND TRUSTHORIZON KINETICS ASSET MANAGEMENT LLC 10% Owner2020-06-23Buy236599.95141,5882020-06-24 11:27:27
TPLTEXAS PACIFIC LAND TRUSTHORIZON KINETICS ASSET MANAGEMENT LLC 10% Owner2020-06-22Buy236614.11144,9302020-06-23 11:44:08
TPLTEXAS PACIFIC LAND TRUSTHORIZON KINETICS ASSET MANAGEMENT LLC 10% Owner2020-06-19Buy936624.04584,1012020-06-22 11:17:52
TPLTEXAS PACIFIC LAND TRUSTHORIZON KINETICS ASSET MANAGEMENT LLC 10% Owner2020-06-18Buy236614.90145,1162020-06-19 11:56:21
TPLTEXAS PACIFIC LAND TRUSTHORIZON KINETICS ASSET MANAGEMENT LLC 10% Owner2020-06-17Buy236625.12147,5282020-06-18 11:48:51
TPLTEXAS PACIFIC LAND TRUSTHORIZON KINETICS ASSET MANAGEMENT LLC 10% Owner2020-06-16Buy236641.35151,3592020-06-17 12:05:59
TPLTEXAS PACIFIC LAND TRUSTHORIZON KINETICS ASSET MANAGEMENT LLC 10% Owner2020-06-15Buy236625.57147,6352020-06-16 17:33:36
TPLTEXAS PACIFIC LAND TRUSTHORIZON KINETICS ASSET MANAGEMENT LLC 10% Owner2020-06-12Buy238627.00149,2262020-06-16 17:14:36
TPLTEXAS PACIFIC LAND TRUSTHORIZON KINETICS ASSET MANAGEMENT LLC 10% Owner2020-06-12Buy238627.00149,2262020-06-15 16:52:13
TPLTEXAS PACIFIC LAND TRUSTHORIZON KINETICS ASSET MANAGEMENT LLC 10% Owner2020-05-15Buy5524.352,6222020-05-18 11:27:08
TPLTEXAS PACIFIC LAND TRUSTHORIZON KINETICS ASSET MANAGEMENT LLC 10% Owner2020-05-15Buy5524.352,6222020-05-18 11:27:08
TPLTEXAS PACIFIC LAND TRUSTHORIZON KINETICS ASSET MANAGEMENT LLC 10% Owner2020-05-15Buy5524.352,6222020-05-18 11:27:08
TPLTEXAS PACIFIC LAND TRUSTHORIZON KINETICS ASSET MANAGEMENT LLC 10% Owner2020-05-15Buy5524.352,6222020-05-18 11:27:08
TPLTEXAS PACIFIC LAND TRUSTHORIZON KINETICS ASSET MANAGEMENT LLC 10% Owner2020-05-15Buy5524.352,6222020-05-18 11:27:08
TPLTEXAS PACIFIC LAND TRUSTHORIZON KINETICS ASSET MANAGEMENT LLC 10% Owner2020-05-15Buy5524.352,6222020-05-18 11:27:08
TPLTEXAS PACIFIC LAND TRUSTHORIZON KINETICS ASSET MANAGEMENT LLC 10% Owner2020-05-15Buy5524.352,6222020-05-18 11:27:08
TPLTEXAS PACIFIC LAND TRUSTHORIZON KINETICS ASSET MANAGEMENT LLC 10% Owner2020-05-15Buy5524.352,6222020-05-18 11:27:08
TPLTEXAS PACIFIC LAND TRUSTHORIZON KINETICS ASSET MANAGEMENT LLC 10% Owner2020-05-15Buy5524.352,6222020-05-18 11:27:08
TPLTEXAS PACIFIC LAND TRUSTHORIZON KINETICS ASSET MANAGEMENT LLC 10% Owner2020-05-15Buy5524.352,6222020-05-18 11:27:08
TPLTEXAS PACIFIC LAND TRUSTHORIZON KINETICS ASSET MANAGEMENT LLC 10% Owner2020-05-13Buy414511.71211,8482020-05-14 12:32:53
TPLTEXAS PACIFIC LAND TRUSTHORIZON KINETICS ASSET MANAGEMENT LLC 10% Owner2020-05-12Buy463524.01242,6172020-05-13 11:50:02
TPLTEXAS PACIFIC LAND TRUSTHORIZON KINETICS ASSET MANAGEMENT LLC 10% Owner2020-05-11Buy288520.19149,8152020-05-12 11:49:28
TPLTEXAS PACIFIC LAND TRUSTHORIZON KINETICS ASSET MANAGEMENT LLC 10% Owner2020-05-11Buy288520.19149,8152020-05-12 11:49:28
TPLTEXAS PACIFIC LAND TRUSTHORIZON KINETICS ASSET MANAGEMENT LLC 10% Owner2020-05-11Buy288520.19149,8152020-05-12 11:49:28
TPLTEXAS PACIFIC LAND TRUSTHORIZON KINETICS ASSET MANAGEMENT LLC 10% Owner2020-05-11Buy288520.19149,8152020-05-12 11:49:28
TPLTEXAS PACIFIC LAND TRUSTHORIZON KINETICS ASSET MANAGEMENT LLC 10% Owner2020-05-11Buy288520.19149,8152020-05-12 11:49:28
TPLTEXAS PACIFIC LAND TRUSTHORIZON KINETICS ASSET MANAGEMENT LLC 10% Owner2020-05-11Buy288520.19149,8152020-05-12 11:49:28
TPLTEXAS PACIFIC LAND TRUSTHORIZON KINETICS ASSET MANAGEMENT LLC 10% Owner2020-05-11Buy288520.19149,8152020-05-12 11:49:28
TPLTEXAS PACIFIC LAND TRUSTHORIZON KINETICS ASSET MANAGEMENT LLC 10% Owner2020-05-11Buy288520.19149,8152020-05-12 11:49:28
TPLTEXAS PACIFIC LAND TRUSTHORIZON KINETICS ASSET MANAGEMENT LLC 10% Owner2020-05-11Buy288520.19149,8152020-05-12 11:49:28
TPLTEXAS PACIFIC LAND TRUSTHORIZON KINETICS ASSET MANAGEMENT LLC 10% Owner2020-05-11Buy288520.19149,8152020-05-12 11:49:28
TPLTEXAS PACIFIC LAND TRUSTHORIZON KINETICS ASSET MANAGEMENT LLC 10% Owner2020-05-08Buy176521.5591,7932020-05-11 11:54:27
TPLTEXAS PACIFIC LAND TRUSTHORIZON KINETICS ASSET MANAGEMENT LLC 10% Owner2020-05-08Buy176521.5591,7932020-05-11 11:54:27
TPLTEXAS PACIFIC LAND TRUSTHORIZON KINETICS ASSET MANAGEMENT LLC 10% Owner2020-05-08Buy176521.5591,7932020-05-11 11:54:27
TPLTEXAS PACIFIC LAND TRUSTHORIZON KINETICS ASSET MANAGEMENT LLC 10% Owner2020-05-08Buy176521.5591,7932020-05-11 11:54:27
TPLTEXAS PACIFIC LAND TRUSTHORIZON KINETICS ASSET MANAGEMENT LLC 10% Owner2020-05-08Buy176521.5591,7932020-05-11 11:54:27
TPLTEXAS PACIFIC LAND TRUSTHORIZON KINETICS ASSET MANAGEMENT LLC 10% Owner2020-05-07Buy8493.033,9442020-05-08 12:03:19
TPLTEXAS PACIFIC LAND TRUSTHORIZON KINETICS ASSET MANAGEMENT LLC 10% Owner2020-05-07Buy8493.033,9442020-05-08 12:03:19
TPLTEXAS PACIFIC LAND TRUSTHORIZON KINETICS ASSET MANAGEMENT LLC 10% Owner2020-04-08Buy1471.034712020-04-09 12:01:47
TPLTEXAS PACIFIC LAND TRUSTHORIZON KINETICS ASSET MANAGEMENT LLC 10% Owner2020-04-06Buy1475.034752020-04-07 11:13:47
TPLTEXAS PACIFIC LAND TRUSTHORIZON KINETICS ASSET MANAGEMENT LLC 10% Owner2020-04-03Buy3457.871,3742020-04-06 11:43:05
TPLTEXAS PACIFIC LAND TRUSTHORIZON KINETICS ASSET MANAGEMENT LLC 10% Owner2020-03-26Buy10370.013,7002020-03-30 14:52:57
TPLTEXAS PACIFIC LAND TRUSTHORIZON KINETICS ASSET MANAGEMENT LLC 10% Owner2020-03-16Buy481408.32196,4002020-03-30 14:21:47
TPLTEXAS PACIFIC LAND TRUSTHORIZON KINETICS ASSET MANAGEMENT LLC 10% Owner2020-03-24Buy8388.943,1122020-03-25 12:37:46
TPLTEXAS PACIFIC LAND TRUSTHORIZON KINETICS ASSET MANAGEMENT LLC 10% Owner2020-03-23Buy18308.345,5502020-03-24 11:17:49
TPLTEXAS PACIFIC LAND TRUSTHORIZON KINETICS ASSET MANAGEMENT LLC 10% Owner2020-03-20Buy29352.8610,2332020-03-23 12:13:49
TPLTEXAS PACIFIC LAND TRUSTHORIZON KINETICS ASSET MANAGEMENT LLC 10% Owner2020-03-19Buy28354.089,9142020-03-20 11:53:43
TPLTEXAS PACIFIC LAND TRUSTHORIZON KINETICS ASSET MANAGEMENT LLC 10% Owner2020-03-18Buy32310.949,9502020-03-19 11:17:41
TPLTEXAS PACIFIC LAND TRUSTHORIZON KINETICS ASSET MANAGEMENT LLC 10% Owner2020-03-17Buy11368.264,0512020-03-18 11:11:43
TPLTEXAS PACIFIC LAND TRUSTHORIZON KINETICS ASSET MANAGEMENT LLC 10% Owner2020-03-16Buy11410.014,5102020-03-17 11:49:05
TPLTEXAS PACIFIC LAND TRUSTHORIZON KINETICS ASSET MANAGEMENT LLC 10% Owner2020-03-13Buy11436.904,8062020-03-16 11:54:36
TPLTEXAS PACIFIC LAND TRUSTHORIZON KINETICS ASSET MANAGEMENT LLC 10% Owner2020-03-12Buy11410.014,5102020-03-13 11:55:08
TPLTEXAS PACIFIC LAND TRUSTHORIZON KINETICS ASSET MANAGEMENT LLC 10% Owner2020-03-11Buy8457.013,6562020-03-12 11:03:25
TPLTEXAS PACIFIC LAND TRUSTTESSLER ALLAN R 10% Owner2020-03-09Buy400498.00199,2002020-03-11 17:02:45
TPLTEXAS PACIFIC LAND TRUSTHORIZON KINETICS ASSET MANAGEMENT LLC 10% Owner2020-03-10Buy11527.005,7972020-03-11 15:01:29
TPLTEXAS PACIFIC LAND TRUSTHORIZON KINETICS ASSET MANAGEMENT LLC 10% Owner2020-03-09Buy8467.213,7382020-03-10 11:02:24
TPLTEXAS PACIFIC LAND TRUSTHORIZON KINETICS ASSET MANAGEMENT LLC 10% Owner2020-03-06Buy2622.001,2442020-03-09 14:28:05
TPLTEXAS PACIFIC LAND TRUSTHORIZON KINETICS ASSET MANAGEMENT LLC 10% Owner2020-03-05Buy1655.816562020-03-06 11:02:48
TPLTEXAS PACIFIC LAND TRUSTHORIZON KINETICS ASSET MANAGEMENT LLC 10% Owner2020-03-03Buy1671.086712020-03-04 10:57:09
TPLTEXAS PACIFIC LAND TRUSTHORIZON KINETICS ASSET MANAGEMENT LLC 10% Owner2020-03-02Buy1690.706912020-03-03 11:09:59
TPLTEXAS PACIFIC LAND TRUSTHORIZON KINETICS ASSET MANAGEMENT LLC 10% Owner2020-02-28Buy1695.806962020-03-02 11:48:52
TPLTEXAS PACIFIC LAND TRUSTHORIZON KINETICS ASSET MANAGEMENT LLC 10% Owner2020-02-27Buy1678.206782020-02-28 13:21:32
TPLTEXAS PACIFIC LAND TRUSTHORIZON KINETICS ASSET MANAGEMENT LLC 10% Owner2020-02-24Buy2754.001,5082020-02-25 12:41:50
TPLTEXAS PACIFIC LAND TRUSTHORIZON KINETICS ASSET MANAGEMENT LLC 10% Owner2020-02-19Buy8770.626,1652020-02-20 16:00:02
TPLTEXAS PACIFIC LAND TRUSTHORIZON KINETICS ASSET MANAGEMENT LLC 10% Owner2020-02-14Buy92770.0770,8462020-02-18 12:04:42
TPLTEXAS PACIFIC LAND TRUSTHORIZON KINETICS ASSET MANAGEMENT LLC 10% Owner2020-02-13Buy94783.5073,6492020-02-14 11:27:29
TPLTEXAS PACIFIC LAND TRUSTHORIZON KINETICS ASSET MANAGEMENT LLC 10% Owner2020-02-12Buy92787.7572,4732020-02-13 11:43:18
TPLTEXAS PACIFIC LAND TRUSTHORIZON KINETICS ASSET MANAGEMENT LLC 10% Owner2020-02-11Buy92782.1071,9532020-02-12 10:48:07
TPLTEXAS PACIFIC LAND TRUSTHORIZON KINETICS ASSET MANAGEMENT LLC 10% Owner2020-02-10Buy106777.4682,4112020-02-11 11:26:48
TPLTEXAS PACIFIC LAND TRUSTHORIZON KINETICS ASSET MANAGEMENT LLC 10% Owner2020-02-07Buy92802.1073,7932020-02-10 11:41:34
TPLTEXAS PACIFIC LAND TRUSTHORIZON KINETICS ASSET MANAGEMENT LLC 10% Owner2020-02-06Buy8803.976,4322020-02-07 10:50:01
TPLTEXAS PACIFIC LAND TRUSTHORIZON KINETICS ASSET MANAGEMENT LLC 10% Owner2020-02-05Buy135801.07108,1442020-02-06 10:58:16
TPLTEXAS PACIFIC LAND TRUSTHORIZON KINETICS ASSET MANAGEMENT LLC 10% Owner2020-02-04Buy135780.04105,3052020-02-05 11:39:31
TPLTEXAS PACIFIC LAND TRUSTHORIZON KINETICS ASSET MANAGEMENT LLC 10% Owner2020-02-03Buy135750.00101,2502020-02-04 12:07:28
TPLTEXAS PACIFIC LAND TRUSTHORIZON KINETICS ASSET MANAGEMENT LLC 10% Owner2020-01-31Buy135755.71102,0212020-02-03 11:49:24
TPLTEXAS PACIFIC LAND TRUSTHORIZON KINETICS ASSET MANAGEMENT LLC 10% Owner2020-01-30Buy135726.5098,0782020-01-31 09:42:53
TPLTEXAS PACIFIC LAND TRUSTHORIZON KINETICS ASSET MANAGEMENT LLC 10% Owner2020-01-29Buy203742.00150,6262020-01-30 11:21:19
TPLTEXAS PACIFIC LAND TRUSTHORIZON KINETICS ASSET MANAGEMENT LLC 10% Owner2020-01-28Buy135745.55100,6492020-01-29 12:09:03
TPLTEXAS PACIFIC LAND TRUSTHORIZON KINETICS ASSET MANAGEMENT LLC 10% Owner2020-01-27Buy137735.13100,7132020-01-28 11:14:46
TPLTEXAS PACIFIC LAND TRUSTHORIZON KINETICS ASSET MANAGEMENT LLC 10% Owner2020-01-24Buy135751.23101,4162020-01-27 11:11:07
TPLTEXAS PACIFIC LAND TRUSTHORIZON KINETICS ASSET MANAGEMENT LLC 10% Owner2020-01-23Buy135759.00102,4652020-01-24 11:49:25
TPLTEXAS PACIFIC LAND TRUSTHORIZON KINETICS ASSET MANAGEMENT LLC 10% Owner2020-01-22Buy139766.80106,5852020-01-23 09:47:32
TPLTEXAS PACIFIC LAND TRUSTHORIZON KINETICS ASSET MANAGEMENT LLC 10% Owner2020-01-21Buy135781.94105,5622020-01-22 11:35:36
TPLTEXAS PACIFIC LAND TRUSTHORIZON KINETICS ASSET MANAGEMENT LLC 10% Owner2020-01-17Buy142792.86112,5862020-01-21 12:55:48
TPLTEXAS PACIFIC LAND TRUSTHORIZON KINETICS ASSET MANAGEMENT LLC 10% Owner2020-01-16Buy150794.90119,2352020-01-17 11:33:23
TPLTEXAS PACIFIC LAND TRUSTHORIZON KINETICS ASSET MANAGEMENT LLC 10% Owner2020-01-15Buy150795.92119,3882020-01-16 11:21:53
TPLTEXAS PACIFIC LAND TRUSTHORIZON KINETICS ASSET MANAGEMENT LLC 10% Owner2020-01-14Buy150799.45119,9182020-01-15 11:38:13
TPLTEXAS PACIFIC LAND TRUSTHORIZON KINETICS ASSET MANAGEMENT LLC 10% Owner2020-01-13Buy150804.90120,7352020-01-14 11:51:53
TPLTEXAS PACIFIC LAND TRUSTHORIZON KINETICS ASSET MANAGEMENT LLC 10% Owner2020-01-10Buy150809.28121,3922020-01-13 11:24:57
TPLTEXAS PACIFIC LAND TRUSTHORIZON KINETICS ASSET MANAGEMENT LLC 10% Owner2020-01-09Buy150813.19121,9792020-01-10 11:34:17
TPLTEXAS PACIFIC LAND TRUSTHORIZON KINETICS ASSET MANAGEMENT LLC 10% Owner2020-01-08Buy150819.37122,9062020-01-09 12:02:33
TPLTEXAS PACIFIC LAND TRUSTHORIZON KINETICS ASSET MANAGEMENT LLC 10% Owner2020-01-07Buy10805.008,0502020-01-08 11:10:33
TPLTEXAS PACIFIC LAND TRUSTHORIZON KINETICS ASSET MANAGEMENT LLC 10% Owner2020-01-06Buy10803.508,0352020-01-07 11:15:03
TPLTEXAS PACIFIC LAND TRUSTHORIZON KINETICS ASSET MANAGEMENT LLC 10% Owner2020-01-03Buy10791.557,9162020-01-06 11:38:45
TPLTEXAS PACIFIC LAND TRUSTHORIZON KINETICS ASSET MANAGEMENT LLC 10% Owner2020-01-02Buy10784.507,8452020-01-03 11:27:38
TPLTEXAS PACIFIC LAND TRUSTHORIZON KINETICS ASSET MANAGEMENT LLC 10% Owner2019-12-31Buy8781.226,2502020-01-02 11:26:31
TPLTEXAS PACIFIC LAND TRUSTHORIZON KINETICS ASSET MANAGEMENT LLC 10% Owner2019-12-30Buy8788.346,3072019-12-31 11:42:54
TPLTEXAS PACIFIC LAND TRUSTHORIZON KINETICS ASSET MANAGEMENT LLC 10% Owner2019-12-27Buy8795.046,3602019-12-30 11:46:45
TPLTEXAS PACIFIC LAND TRUSTHORIZON KINETICS ASSET MANAGEMENT LLC 10% Owner2019-12-26Buy41785.2232,1942019-12-27 12:23:51
TPLTEXAS PACIFIC LAND TRUSTHORIZON KINETICS ASSET MANAGEMENT LLC 10% Owner2019-12-23Buy82790.3664,8092019-12-26 10:53:42
TPLTEXAS PACIFIC LAND TRUSTHORIZON KINETICS ASSET MANAGEMENT LLC 10% Owner2019-12-20Buy41765.9231,4032019-12-23 11:39:18
TPLTEXAS PACIFIC LAND TRUSTHORIZON KINETICS ASSET MANAGEMENT LLC 10% Owner2019-12-19Buy41732.0330,0132019-12-20 11:30:32
TPLTEXAS PACIFIC LAND TRUSTHORIZON KINETICS ASSET MANAGEMENT LLC 10% Owner2019-12-18Buy41708.1229,0332019-12-19 12:25:29
TPLTEXAS PACIFIC LAND TRUSTHORIZON KINETICS ASSET MANAGEMENT LLC 10% Owner2019-12-17Buy257702.99180,6682019-12-18 10:49:27
TPLTEXAS PACIFIC LAND TRUSTHORIZON KINETICS ASSET MANAGEMENT LLC 10% Owner2019-12-16Buy47695.0532,6672019-12-17 11:18:15
TPLTEXAS PACIFIC LAND TRUSTHORIZON KINETICS ASSET MANAGEMENT LLC 10% Owner2019-12-13Buy40683.8627,3542019-12-16 12:58:40
TPLTEXAS PACIFIC LAND TRUSTHORIZON KINETICS ASSET MANAGEMENT LLC 10% Owner2019-12-12Buy40688.0027,5202019-12-13 11:20:16
TPLTEXAS PACIFIC LAND TRUSTHORIZON KINETICS ASSET MANAGEMENT LLC 10% Owner2019-12-11Buy40675.0227,0012019-12-12 11:31:42
TPLTEXAS PACIFIC LAND TRUSTHORIZON KINETICS ASSET MANAGEMENT LLC 10% Owner2019-12-10Buy40672.1926,8882019-12-11 11:35:20
TPLTEXAS PACIFIC LAND TRUSTHORIZON KINETICS ASSET MANAGEMENT LLC 10% Owner2019-12-09Buy40668.9426,7582019-12-10 11:31:53
TPLTEXAS PACIFIC LAND TRUSTHORIZON KINETICS ASSET MANAGEMENT LLC 10% Owner2019-12-06Buy33667.5522,0292019-12-09 10:57:41
TPLTEXAS PACIFIC LAND TRUSTHORIZON KINETICS ASSET MANAGEMENT LLC 10% Owner2019-12-05Buy40666.4026,6562019-12-06 11:36:47
TPLTEXAS PACIFIC LAND TRUSTHORIZON KINETICS ASSET MANAGEMENT LLC 10% Owner2019-12-04Buy33666.6421,9992019-12-05 11:29:02
TPLTEXAS PACIFIC LAND TRUSTHORIZON KINETICS ASSET MANAGEMENT LLC 10% Owner2019-12-03Buy33645.6121,3052019-12-04 11:53:46
TPLTEXAS PACIFIC LAND TRUSTHORIZON KINETICS ASSET MANAGEMENT LLC 10% Owner2019-12-02Buy37650.0024,0502019-12-03 11:55:51
TPLTEXAS PACIFIC LAND TRUSTHORIZON KINETICS ASSET MANAGEMENT LLC 10% Owner2019-11-29Buy33674.9822,2742019-12-02 11:28:36
TPLTEXAS PACIFIC LAND TRUSTHORIZON KINETICS ASSET MANAGEMENT LLC 10% Owner2019-11-27Buy33675.9922,3082019-11-29 10:20:44
TPLTEXAS PACIFIC LAND TRUSTHORIZON KINETICS ASSET MANAGEMENT LLC 10% Owner2019-11-26Buy37667.2024,6862019-11-27 10:02:50
TPLTEXAS PACIFIC LAND TRUSTHORIZON KINETICS ASSET MANAGEMENT LLC 10% Owner2019-11-25Buy33676.0022,3082019-11-26 10:58:21
TPLTEXAS PACIFIC LAND TRUSTHORIZON KINETICS ASSET MANAGEMENT LLC 10% Owner2019-11-22Buy26670.0017,4202019-11-25 11:43:43
TPLTEXAS PACIFIC LAND TRUSTHORIZON KINETICS ASSET MANAGEMENT LLC 10% Owner2019-11-21Buy26679.2117,6592019-11-22 11:35:43
TPLTEXAS PACIFIC LAND TRUSTHORIZON KINETICS ASSET MANAGEMENT LLC 10% Owner2019-11-20Buy46690.1831,7482019-11-21 11:44:46
TPLTEXAS PACIFIC LAND TRUSTHORIZON KINETICS ASSET MANAGEMENT LLC 10% Owner2019-11-19Buy25682.6417,0662019-11-20 11:38:45
TPLTEXAS PACIFIC LAND TRUSTHORIZON KINETICS ASSET MANAGEMENT LLC 10% Owner2019-11-18Buy25665.0516,6262019-11-19 11:07:31
TPLTEXAS PACIFIC LAND TRUSTHORIZON KINETICS ASSET MANAGEMENT LLC 10% Owner2019-11-15Buy109665.0072,4852019-11-18 11:24:11
TPLTEXAS PACIFIC LAND TRUSTHORIZON KINETICS ASSET MANAGEMENT LLC 10% Owner2019-11-14Buy108651.0170,3092019-11-15 11:09:49
TPLTEXAS PACIFIC LAND TRUSTHORIZON KINETICS ASSET MANAGEMENT LLC 10% Owner2019-11-13Buy23664.3715,2812019-11-14 12:04:03
TPLTEXAS PACIFIC LAND TRUSTHORIZON KINETICS ASSET MANAGEMENT LLC 10% Owner2019-11-12Buy33646.7521,3432019-11-13 11:10:24
TPLTEXAS PACIFIC LAND TRUSTHORIZON KINETICS ASSET MANAGEMENT LLC 10% Owner2019-11-08Buy79646.6451,0852019-11-12 11:14:47
TPLTEXAS PACIFIC LAND TRUSTHORIZON KINETICS ASSET MANAGEMENT LLC 10% Owner2019-11-07Buy9644.495,8002019-11-08 11:14:51
TPLTEXAS PACIFIC LAND TRUSTHORIZON KINETICS ASSET MANAGEMENT LLC 10% Owner2019-11-06Buy9654.495,8902019-11-07 11:54:12
TPLTEXAS PACIFIC LAND TRUSTHORIZON KINETICS ASSET MANAGEMENT LLC 10% Owner2019-11-05Buy9656.485,9082019-11-06 11:29:52
TPLTEXAS PACIFIC LAND TRUSTHORIZON KINETICS ASSET MANAGEMENT LLC 10% Owner2019-11-04Buy9647.835,8302019-11-05 13:51:49
TPLTEXAS PACIFIC LAND TRUSTHORIZON KINETICS ASSET MANAGEMENT LLC 10% Owner2019-11-01Buy496622.78308,8992019-11-04 12:00:18
TPLTEXAS PACIFIC LAND TRUSTHORIZON KINETICS ASSET MANAGEMENT LLC 10% Owner2019-10-31Buy9580.215,2222019-11-01 10:20:26
TPLTEXAS PACIFIC LAND TRUSTHORIZON KINETICS ASSET MANAGEMENT LLC 10% Owner2019-10-30Buy14594.468,3222019-10-31 11:36:16
TPLTEXAS PACIFIC LAND TRUSTHORIZON KINETICS ASSET MANAGEMENT LLC 10% Owner2019-10-29Buy9603.625,4332019-10-30 11:19:05
TPLTEXAS PACIFIC LAND TRUSTHORIZON KINETICS ASSET MANAGEMENT LLC 10% Owner2019-10-28Buy9607.005,4632019-10-29 11:02:27
TPLTEXAS PACIFIC LAND TRUSTHORIZON KINETICS ASSET MANAGEMENT LLC 10% Owner2019-10-25Buy9607.735,4702019-10-28 11:22:25
TPLTEXAS PACIFIC LAND TRUSTHORIZON KINETICS ASSET MANAGEMENT LLC 10% Owner2019-10-24Buy9618.705,5682019-10-25 11:11:24
TPLTEXAS PACIFIC LAND TRUSTHORIZON KINETICS ASSET MANAGEMENT LLC 10% Owner2019-10-23Buy9613.705,5232019-10-24 11:28:57
TPLTEXAS PACIFIC LAND TRUSTHORIZON KINETICS ASSET MANAGEMENT LLC 10% Owner2019-10-22Buy9607.725,4692019-10-23 11:56:32
TPLTEXAS PACIFIC LAND TRUSTHORIZON KINETICS ASSET MANAGEMENT LLC 10% Owner2019-10-21Buy9596.855,3722019-10-22 12:17:44
TPLTEXAS PACIFIC LAND TRUSTHORIZON KINETICS ASSET MANAGEMENT LLC 10% Owner2019-10-18Buy9600.035,4002019-10-21 11:20:45
TPLTEXAS PACIFIC LAND TRUSTHORIZON KINETICS ASSET MANAGEMENT LLC 10% Owner2019-10-17Buy9594.315,3492019-10-18 11:03:16
TPLTEXAS PACIFIC LAND TRUSTHORIZON KINETICS ASSET MANAGEMENT LLC 10% Owner2019-10-16Buy9618.505,5672019-10-17 11:24:20
TPLTEXAS PACIFIC LAND TRUSTHORIZON KINETICS ASSET MANAGEMENT LLC 10% Owner2019-10-15Buy9608.465,4762019-10-16 13:23:57
TPLTEXAS PACIFIC LAND TRUSTHORIZON KINETICS ASSET MANAGEMENT LLC 10% Owner2019-10-11Buy18615.4811,0792019-10-15 13:45:39
TPLTEXAS PACIFIC LAND TRUSTHORIZON KINETICS ASSET MANAGEMENT LLC 10% Owner2019-10-10Buy7609.464,2662019-10-11 12:07:41
TPLTEXAS PACIFIC LAND TRUSTHORIZON KINETICS ASSET MANAGEMENT LLC 10% Owner2019-10-09Buy7618.504,3302019-10-10 11:43:20
TPLTEXAS PACIFIC LAND TRUSTHORIZON KINETICS ASSET MANAGEMENT LLC 10% Owner2019-10-08Buy7603.104,2222019-10-09 12:02:13
TPLTEXAS PACIFIC LAND TRUSTHORIZON KINETICS ASSET MANAGEMENT LLC 10% Owner2019-10-07Buy7606.254,2442019-10-08 11:39:07
TPLTEXAS PACIFIC LAND TRUSTTESSLER ALLAN R 10% Owner2019-10-04Buy500603.86301,9302019-10-08 09:43:36
TPLTEXAS PACIFIC LAND TRUSTHORIZON KINETICS ASSET MANAGEMENT LLC 10% Owner2019-10-04Buy5600.033,0002019-10-07 12:17:37
TPLTEXAS PACIFIC LAND TRUSTHORIZON KINETICS ASSET MANAGEMENT LLC 10% Owner2019-10-03Buy5620.873,1042019-10-04 11:15:45
TPLTEXAS PACIFIC LAND TRUSTHORIZON KINETICS ASSET MANAGEMENT LLC 10% Owner2019-10-02Buy5610.983,0552019-10-03 12:19:52
TPLTEXAS PACIFIC LAND TRUSTHORIZON KINETICS ASSET MANAGEMENT LLC 10% Owner2019-10-01Buy10645.356,4542019-10-02 12:39:23
TPLTEXAS PACIFIC LAND TRUSTHORIZON KINETICS ASSET MANAGEMENT LLC 10% Owner2019-09-30Buy5643.243,2162019-10-01 11:44:19
TPLTEXAS PACIFIC LAND TRUSTHORIZON KINETICS ASSET MANAGEMENT LLC 10% Owner2019-09-26Buy5642.553,2132019-09-27 14:13:31
TPLTEXAS PACIFIC LAND TRUSTHORIZON KINETICS ASSET MANAGEMENT LLC 10% Owner2019-09-25Buy5646.313,2322019-09-26 15:58:49
TPLTEXAS PACIFIC LAND TRUSTHORIZON KINETICS ASSET MANAGEMENT LLC 10% Owner2019-09-24Buy5651.513,2582019-09-25 13:46:33
TPLTEXAS PACIFIC LAND TRUSTHORIZON KINETICS ASSET MANAGEMENT LLC 10% Owner2019-09-17Buy43698.3130,0272019-09-18 12:30:09
TPLTEXAS PACIFIC LAND TRUSTHORIZON KINETICS ASSET MANAGEMENT LLC 10% Owner2019-09-16Buy49705.7134,5802019-09-17 12:53:33
TPLTEXAS PACIFIC LAND TRUSTHORIZON KINETICS ASSET MANAGEMENT LLC 10% Owner2019-09-13Buy49673.7833,0152019-09-16 12:24:05
TPLTEXAS PACIFIC LAND TRUSTHORIZON KINETICS ASSET MANAGEMENT LLC 10% Owner2019-09-12Buy49663.0032,4872019-09-13 12:31:52
TPLTEXAS PACIFIC LAND TRUSTHORIZON KINETICS ASSET MANAGEMENT LLC 10% Owner2019-09-11Buy49655.8632,1372019-09-12 11:32:24
TPLTEXAS PACIFIC LAND TRUSTHORIZON KINETICS ASSET MANAGEMENT LLC 10% Owner2019-09-10Buy49659.4032,3112019-09-11 11:11:10
TPLTEXAS PACIFIC LAND TRUSTHORIZON KINETICS ASSET MANAGEMENT LLC 10% Owner2019-09-09Buy49686.9033,6582019-09-10 10:52:23
TPLTEXAS PACIFIC LAND TRUSTHORIZON KINETICS ASSET MANAGEMENT LLC 10% Owner2019-09-06Buy49697.4834,1772019-09-09 11:29:49
TPLTEXAS PACIFIC LAND TRUSTHORIZON KINETICS ASSET MANAGEMENT LLC 10% Owner2019-09-05Buy49706.5034,6192019-09-06 11:19:06
TPLTEXAS PACIFIC LAND TRUSTHORIZON KINETICS ASSET MANAGEMENT LLC 10% Owner2019-09-04Buy49670.2732,8432019-09-05 12:11:28
TPLTEXAS PACIFIC LAND TRUSTHORIZON KINETICS ASSET MANAGEMENT LLC 10% Owner2019-09-03Buy49653.8932,0412019-09-04 10:58:39
TPLTEXAS PACIFIC LAND TRUSTHORIZON KINETICS ASSET MANAGEMENT LLC 10% Owner2019-08-30Buy49654.6032,0752019-09-03 11:39:38
TPLTEXAS PACIFIC LAND TRUSTHORIZON KINETICS ASSET MANAGEMENT LLC 10% Owner2019-08-29Buy54656.1035,4292019-08-30 12:51:27
TPLTEXAS PACIFIC LAND TRUSTHORIZON KINETICS ASSET MANAGEMENT LLC 10% Owner2019-08-28Buy49641.5831,4372019-08-29 11:10:10
TPLTEXAS PACIFIC LAND TRUSTHORIZON KINETICS ASSET MANAGEMENT LLC 10% Owner2019-08-27Buy49637.5031,2382019-08-28 11:21:55
TPLTEXAS PACIFIC LAND TRUSTHORIZON KINETICS ASSET MANAGEMENT LLC 10% Owner2019-08-26Buy49636.0831,1682019-08-27 12:04:43
TPLTEXAS PACIFIC LAND TRUSTHORIZON KINETICS ASSET MANAGEMENT LLC 10% Owner2019-08-23Buy49668.3932,7512019-08-26 11:32:09
TPLTEXAS PACIFIC LAND TRUSTHORIZON KINETICS ASSET MANAGEMENT LLC 10% Owner2019-08-22Buy49674.5033,0512019-08-23 10:52:13
TPLTEXAS PACIFIC LAND TRUSTHORIZON KINETICS ASSET MANAGEMENT LLC 10% Owner2019-08-21Buy49669.3732,7992019-08-22 11:26:31
TPLTEXAS PACIFIC LAND TRUSTHORIZON KINETICS ASSET MANAGEMENT LLC 10% Owner2019-08-20Buy49666.5032,6592019-08-21 10:59:04
TPLTEXAS PACIFIC LAND TRUSTHORIZON KINETICS ASSET MANAGEMENT LLC 10% Owner2019-08-19Buy49679.3633,2892019-08-20 11:06:33
TPLTEXAS PACIFIC LAND TRUSTHORIZON KINETICS ASSET MANAGEMENT LLC 10% Owner2019-08-16Buy49671.4632,9022019-08-19 12:12:54
TPLTEXAS PACIFIC LAND TRUSTHORIZON KINETICS ASSET MANAGEMENT LLC 10% Owner2019-08-15Buy49649.7331,8372019-08-16 11:11:43
TPLTEXAS PACIFIC LAND TRUSTHORIZON KINETICS ASSET MANAGEMENT LLC 10% Owner2019-08-14Buy188641.00120,5082019-08-15 11:10:42
TPLTEXAS PACIFIC LAND TRUSTHORIZON KINETICS ASSET MANAGEMENT LLC 10% Owner2019-08-13Buy49688.7833,7502019-08-14 11:35:41
TPLTEXAS PACIFIC LAND TRUSTHORIZON KINETICS ASSET MANAGEMENT LLC 10% Owner2019-08-12Buy49679.6533,3032019-08-13 11:26:45
TPLTEXAS PACIFIC LAND TRUSTHORIZON KINETICS ASSET MANAGEMENT LLC 10% Owner2019-08-09Buy49673.7033,0112019-08-12 10:06:41
TPLTEXAS PACIFIC LAND TRUSTHORIZON KINETICS ASSET MANAGEMENT LLC 10% Owner2019-08-08Buy49674.3933,0452019-08-09 11:05:49
TPLTEXAS PACIFIC LAND TRUSTHORIZON KINETICS ASSET MANAGEMENT LLC 10% Owner2019-08-07Buy49659.1232,2972019-08-08 10:56:42
TPLTEXAS PACIFIC LAND TRUSTHORIZON KINETICS ASSET MANAGEMENT LLC 10% Owner2019-08-06Buy49681.0033,3692019-08-07 10:17:53
TPLTEXAS PACIFIC LAND TRUSTHORIZON KINETICS ASSET MANAGEMENT LLC 10% Owner2019-08-05Buy49689.7633,7982019-08-06 10:12:16
TPLTEXAS PACIFIC LAND TRUSTHORIZON KINETICS ASSET MANAGEMENT LLC 10% Owner2019-08-02Buy49720.2335,2912019-08-05 09:56:23
TPLTEXAS PACIFIC LAND TRUSTHORIZON KINETICS ASSET MANAGEMENT LLC 10% Owner2019-08-01Buy49759.8537,2332019-08-02 10:40:14